Regional Weather Roundup
Issued by NWS Sterling, VA

Home | Current Version | Previous Version | Graphics & Text | Print | Product List | Glossary On
Versions: 1 2 3 4 5 6 7 8 9 10 11 12 13 14 15 16 17 18 19 20 21 22 23 24 25 26 27 28 29 30 31 32 33 34 35 36 37 38 39 40 41 42 43 44 45 46 47 48 49 50
000
ASUS41 KLWX 050010
RWRLWX

REGIONAL WEATHER ROUNDUP
NATIONAL WEATHER SERVICE BALTIMORE MD/WASHINGTON DC
800 PM EDT MON MAY 04 2015

Note: "FAIR" indicates few or no clouds below 12,000 feet
with no significant weather and/or obstructions to visibility.
 TC=TEMPERATURE CELSIUS

 * =Non NWS site. Station does not report precipitation (e.g. rain,
    snow, etc.), thunder, or fog.

DCZ001-MDZ009-015-VAZ040>042-051-053>054-050100-
WASHINGTON METRO

CITY           SKY/WX    TMP DP  RH WIND       PRES   REMARKS
WASHINGTON NAT PTCLDY    76  56  49 S10       30.15S
DULLES         MOCLDY    76  50  40 S7        30.15R
ANDREWS AFB    CLEAR     74  51  43 S10       30.16R
FT BELVOIR     CLEAR     77  52  41 SE5       30.16R
QUANTICO       CLEAR     72  58  61 S9        30.17R
COLLEGE PARK*  CLEAR     81  45  28 S5        30.15S
LEESBURG*      CLEAR     79  54  41 S15       30.16R
MANASSAS*      CLEAR     77  52  41 S6        30.15S
GAITHERSBURG*  PTCLDY    79  48  34 S6        30.19S

$$

MDZ006>007-011-014-050100-
BALTIMORE METRO

CITY           SKY/WX    TMP DP  RH WIND       PRES   REMARKS
BWI AIRPORT    PTCLDY    74  49  41 SE7       30.15R
MD SCIENCE CTR   N/A     75  49  39 MISG      30.16S
ANNAPOLIS      CLEAR     69  51  52 S18       30.17R
FORT MEADE*    CLEAR     73  50  43 SE5       30.18R

$$

MDZ012-015-019>023-050100-
MARYLAND EASTERN SHORE

CITY           SKY/WX    TMP DP  RH WIND       PRES   REMARKS
OCEAN CITY     CLEAR     64  55  72 S8        30.24R
SALISBURY      CLEAR     72  43  35 S9        30.22R
BAY BRIDGE AP*   N/A    N/A N/A N/A S10G16    30.18S
CAMBRIDGE*     CLEAR     73  48  40 S12G17    30.20R
EASTON*        PTCLDY    75  54  46 S9        30.23R

$$

MDZ017>025-050100-
SOUTHERN MARYLAND

CITY           SKY/WX    TMP DP  RH WIND       PRES   REMARKS
PATUXENT RIVER PTCLDY    72  49  44 S9        30.19R
ST INIGOES     CLEAR     71  50  47 SE13      30.19R
LEONARDTOWN*   CLEAR     72  50  46 SE6       30.21R

$$

MDZ003>005-050100-
NORTH CENTRAL MARYLAND

CITY           SKY/WX    TMP DP  RH WIND       PRES   REMARKS
FREDERICK*     NOT AVBL
HAGERSTOWN APT MOCLDY    78  49  35 S8        30.13R
WESTMINSTER*   PTCLDY    79  45  29 S7        30.16R

$$

MDZ501>502-050100-
WESTERN MARYLAND

CITY           SKY/WX    TMP DP  RH WIND       PRES   REMARKS
OAKLAND*       MOCLDY    68  45  42 SW6       30.25S
CUMBERLAND*    PTCLDY    81  43  26 W6        30.18R

$$

VAZ025>031-050100-
SHENANDOAH VALLEY

CITY           SKY/WX    TMP DP  RH WIND       PRES   REMARKS
WINCHESTER*    PTCLDY    77  41  27 S5        30.15R
FRONT ROYAL*   FAIR      75  50  41 CALM      30.14R
LURAY*         FAIR      77  50  38 SW5       30.16R
NEW MARKET*    FAIR      75  51  42 W5        30.14R
STAUNTON*      MOCLDY    75  48  38 S8        30.20R
WAYNESBORO*    FAIR      73  50  43 S6        30.20S

$$

WVZ021-048>050-054>055-050100-
EASTERN WEST VIRGINIA PANHANDLE

CITY           SKY/WX    TMP DP  RH WIND       PRES   REMARKS
MARTINSBURG    PTCLDY    76  51  41 S6        30.14R
PETERSBURG*    PTCLDY    74  45  36 W3        30.17R

$$

VAZ036>039-050-050100-
CENTRAL FOOTHILLS

CITY           SKY/WX    TMP DP  RH WIND       PRES   REMARKS
CHARLOTTESVILL CLEAR     75  51  43 S10       30.17R
CULPEPER*      NOT AVBL
ORANGE*        CLEAR     77  52  41 CALM      30.18S
GORDONSVILLE*  FAIR      74  54  48 S6        30.16S
WARRENTON*     FAIR      77  54  45 S3        30.16R

$$

VAZ055>057-050100-
NORTH AND CENTRAL PIEDMONT

CITY           SKY/WX    TMP DP  RH WIND       PRES   REMARKS
FREDERICKSBRG* CLEAR     80  52  38 S8        30.16R
STAFFORD*      CLEAR     76  46  34 S6        30.20S

$$

NCZ024-NYZ072-PAZ021-071-VAZ022-071-050100-
OTHER REGIONAL OBSERVATIONS

CITY           SKY/WX    TMP DP  RH WIND       PRES   REMARKS
NEW YORK CITY  CLEAR     80  41  24 VRB7      30.15R
PHILADELPHIA   PTCLDY    77  43  29 S8        30.16R
PITTSBURGH     CLOUDY    72  55  55 NW23G32   30.18R
ROANOKE        PTCLDY    75  50  41 S8        30.22S
RICHMOND       PTCLDY    75  52  44 S9        30.20R
RALEIGH        PTCLDY    75  52  44 S6        30.26R

$$

ANZ530>537-050100-
MARINE OBSERVATIONS

STATION/POSITION TIME  TEMP    WIND        PRES
                       AIR SEA DIR/SP/G
                 (UTC) (F)     (DEG/KT/KT) (MB)
THOMAS PT LIGHT  0000   68 59  170/ 24/ 26 1022.0S
BALT KEY BRIDGE  2300   73     150/ 20/ 22 1020.6F
COVE POINT       2300   67     190/ 18/ 20 1022.9F
LEWISETTA        2300   76 67              1022.2S
SOLOMONS ISLAND  2300      63                N/A
PINEY POINT      2300          180/ 13/ 14   N/A

$$




USA.gov is the U.S. government's official web portal to all federal, state and local government web resources and services.